Theta_e
345 353 359 358 356 357 356 355 354 352 351 348 351 351 347 345 346 348 350 351 352 349 349 348 347 346 345 344 342 344 344 342 343 346 348 349 349 349 348 347 346 340 344
348 353 358 358 357 357 356 354 354 354 352 352 352 349 345 344 345 348 348 351 351 349 348 346 345 344 343 344 345 344 344 343 342 345 345 346 348 346 346 346 347 344 349
349 353 355 358 357 356 355 353 354 352 351 353 350 348 344 343 346 345 346 350 350 348 347 345 344 343 342 341 341 343 344 344 343 342 342 338 341 345 348 347 348 347 348
349 351 354 357 357 356 356 354 353 350 350 352 352 348 343 343 344 345 344 345 347 346 344 344 344 343 342 340 341 342 342 342 345 344 338 337 338 343 346 345 345 346 345
348 351 355 356 356 356 355 353 350 349 348 353 353 351 344 343 342 343 343 344 345 343 342 343 343 343 342 340 340 340 341 346 343 338 333 332 332 339 343 341 339 340 342
345 351 355 355 355 355 355 353 349 348 347 351 353 350 345 343 343 342 342 343 344 344 343 343 342 343 342 340 339 340 340 340 337 331 331 334 331 339 338 335 335 335 335
348 351 353 356 356 355 354 352 350 347 346 351 352 349 346 343 343 342 342 342 343 343 343 343 341 341 343 340 339 339 338 337 325 327 329 329 330 339 339 336 333 333 333
348 351 352 353 354 353 353 351 349 347 348 350 353 350 347 344 342 343 342 342 342 342 342 342 341 339 341 341 338 337 337 335 323 327 330 330 339 338 339 337 333 332 332
349 349 350 351 351 350 350 349 347 348 350 351 352 350 348 346 343 342 343 342 341 341 340 340 340 338 338 340 337 336 335 332 320 327 333 332 340 338 338 337 334 332 331
345 347 345 348 349 346 345 345 344 347 348 350 349 347 344 343 344 343 342 343 341 340 339 338 338 337 336 333 332 333 330 328 318 319 322 329 340 338 336 336 334 331 330
342 343 345 345 345 343 342 340 341 344 343 342 342 340 339 339 339 338 337 340 342 340 338 337 336 335 335 333 332 330 329 319 316 317 317 332 333 336 338 336 334 330 329
337 342 344 344 344 342 342 337 334 335 337 337 336 336 335 334 334 337 335 337 341 340 339 337 336 335 331 323 322 328 319 318 314 315 319 333 332 333 337 338 334 330 329
338 341 342 343 344 340 339 337 333 331 329 330 334 333 331 330 333 332 331 333 332 334 332 334 331 328 322 320 321 319 318 313 313 313 323 333 332 331 336 341 336 331 329
337 340 341 341 343 341 338 338 336 334 334 331 328 327 323 323 325 327 328 328 328 331 329 328 326 326 324 321 318 316 314 313 314 314 317 330 333 330 335 340 338 335 331
336 339 340 341 343 343 339 338 337 334 334 335 332 330 326 326 324 324 324 326 326 328 326 326 326 325 324 324 323 321 319 318 317 316 315 326 329 332 332 338 341 339 336
335 337 340 341 341 343 342 341 339 334 333 333 336 334 331 330 328 329 325 320 320 322 322 322 323 323 324 325 325 324 323 321 321 322 320 318 329 330 332 331 336 340 340
335 336 339 340 341 340 339 342 340 338 336 332 334 335 333 332 330 330 327 324 324 321 321 321 323 325 325 327 326 327 327 326 324 324 324 321 321 326 330 332 333 335 338
333 335 338 340 339 338 338 339 337 339 336 335 335 333 334 333 331 329 328 327 327 326 323 324 325 324 324 325 325 326 326 327 329 328 326 325 323 322 326 332 335 335 335
332 334 336 338 337 338 339 338 338 338 334 332 333 333 333 334 333 330 330 329 330 329 328 327 327 326 325 326 328 329 329 329 330 330 328 327 327 328 325 327 329 330 333
332 333 334 336 337 336 335 337 337 336 334 332 331 332 334 334 333 331 331 331 330 332 332 331 330 330 329 330 330 330 329 329 328 327 327 328 326 324 326 323 322 323 327
330 331 333 333 334 334 332 330 331 329 330 330 332 334 334 334 334 331 331 331 333 331 331 331 330 329 328 328 327 323 324 326 326 326 327 325 323 322 321 320 319 319 320
328 330 331 334 332 333 333 332 333 332 332 333 334 335 336 335 335 333 332 332 333 332 332 331 331 330 329 329 325 323 317 318 321 321 320 321 319 317 318 316 314 314 313
313 327 332 333 334 333 334 333 333 332 332 332 332 333 334 335 335 336 335 335 334 334 332 333 331 330 326 325 326 321 314 311 314 318 317 317 317 316 313 313 312 313 312
307 311 326 331 333 335 334 332 329 328 326 328 329 331 323 324 321 319 321 326 330 330 327 325 326 324 322 321 320 323 322 319 315 311 314 315 314 312 311 310 311 310 310
309 309 310 320 330 333 333 333 330 326 327 323 320 318 316 314 316 316 316 316 316 316 316 317 317 317 318 317 315 313 314 315 315 311 307 310 313 313 312 311 309 307 306
309 309 308 309 313 321 324 327 327 325 319 312 311 311 311 313 314 315 315 313 314 314 315 315 315 315 315 315 314 312 311 310 310 310 310 309 309 313 314 311 307 306 304
Wind_Speed
12 14 19 19 18 17 17 15 14 14 12 14 14 18 16 16 16 16 17 18 19 19 19 18 18 18 17 16 16 15 15 15 15 14 15 16 15 19 15 16 12 9 12
16 15 20 18 18 16 15 15 14 13 10 14 18 18 17 16 16 16 16 18 20 20 19 18 17 17 15 14 13 11 11 11 10 9 11 13 14 16 16 13 13 11 17
16 15 16 19 17 16 16 16 15 14 12 17 17 18 17 16 16 16 15 17 19 19 18 16 15 15 14 12 11 9 8 8 4 4 4 5 11 15 15 17 15 18 19
16 13 13 18 17 17 17 17 15 15 15 16 16 18 17 17 16 16 16 15 17 18 16 15 14 13 12 11 11 10 10 10 11 14 5 8 9 13 15 16 14 15 16
14 12 12 17 17 18 17 16 15 15 14 15 16 16 17 17 17 16 16 15 15 15 14 14 13 12 11 9 10 10 13 12 12 10 7 7 5 10 13 13 12 13 12
12 12 14 17 18 17 16 14 15 15 15 14 16 17 17 17 17 17 16 15 13 13 13 13 13 12 11 8 9 11 13 12 9 7 6 8 6 12 13 13 13 12 11
12 12 12 18 17 15 15 13 12 14 14 14 17 18 17 17 16 16 15 14 13 13 12 12 12 11 10 8 7 9 12 11 6 6 6 6 6 12 12 12 12 12 11
14 12 12 16 16 15 14 13 11 11 13 13 13 18 17 16 15 15 14 13 12 11 11 10 10 10 8 7 5 6 8 9 5 6 5 5 7 10 11 11 11 11 11
14 12 9 10 13 14 13 12 11 10 9 9 12 17 16 16 14 13 12 12 11 10 9 8 8 8 8 6 3 4 6 7 4 4 5 3 5 7 8 9 9 9 10
13 12 9 8 9 9 8 12 12 10 8 10 9 14 11 12 13 12 8 8 9 9 8 7 7 6 5 4 1 2 5 7 3 4 3 3 5 4 5 5 7 7 8
10 12 11 9 7 8 7 8 10 12 11 10 9 11 9 4 7 9 9 9 8 7 6 6 5 4 4 3 4 5 4 2 2 3 2 6 5 3 5 4 5 6 6
10 13 10 11 10 8 7 6 6 7 5 5 5 5 4 4 4 6 7 10 9 8 6 5 4 4 3 2 3 5 1 3 1 2 3 7 6 4 3 6 5 5 5
12 10 11 10 12 9 7 5 3 3 4 4 7 6 5 3 5 3 3 3 3 6 3 5 4 3 4 3 4 3 3 4 1 1 4 7 6 4 3 5 7 6 5
12 10 13 11 11 8 6 6 5 4 4 4 5 6 5 4 4 4 3 4 4 4 5 4 3 4 5 6 6 5 4 3 2 1 3 9 7 5 4 7 8 7 6
7 7 12 10 10 9 9 5 5 5 4 5 7 6 5 5 5 5 4 4 4 4 4 4 4 4 5 5 4 5 5 4 5 2 2 8 9 7 7 8 10 9 8
7 9 7 10 9 10 9 8 7 4 5 4 4 6 6 5 5 4 4 5 5 4 4 4 4 3 3 2 3 4 5 5 5 5 4 4 10 10 9 9 9 12 11
6 7 10 11 10 9 8 9 6 6 5 4 5 8 7 6 6 6 4 4 4 4 5 2 2 2 1 2 3 4 4 5 5 6 5 4 5 9 11 11 10 11 12
5 7 9 8 8 7 8 7 5 5 4 5 5 5 7 7 7 5 4 4 4 3 4 3 3 2 2 3 3 4 4 4 5 5 4 4 4 4 9 12 11 12 12
9 8 8 8 10 7 7 6 5 4 3 4 4 4 7 7 6 5 4 4 5 4 3 3 3 3 3 3 4 3 3 3 3 3 5 5 5 5 4 8 13 10 9
8 8 8 6 8 7 5 4 3 4 3 2 3 4 7 5 7 5 4 4 4 4 4 3 4 3 3 3 3 3 3 4 4 4 6 4 3 4 4 4 3 3 6
8 9 10 7 7 6 3 4 4 4 3 3 3 5 7 6 6 6 4 4 5 3 3 3 2 2 3 2 2 2 3 6 6 5 5 4 2 1 3 3 2 1 1
13 10 9 12 8 6 3 3 3 4 3 3 3 4 5 6 6 5 5 4 2 2 3 3 2 2 2 3 3 2 3 4 2 2 3 2 4 3 4 4 5 5 4
8 10 13 12 11 6 7 3 2 3 2 2 2 3 3 5 5 5 5 3 3 1 1 0 0 2 3 2 3 3 3 4 2 2 1 1 1 2 4 5 5 5 5
7 6 6 8 13 10 8 6 6 5 4 4 4 3 4 4 6 6 5 4 1 0 1 1 0 2 0 4 2 3 4 2 2 3 2 1 3 1 2 2 4 5 6
6 4 2 4 7 9 11 7 5 5 3 3 2 6 4 4 6 6 5 4 2 2 2 2 2 2 1 2 2 1 1 1 2 4 3 4 2 2 1 2 4 5 6
5 4 2 2 3 5 6 7 8 7 5 5 4 5 4 3 4 5 5 4 3 2 1 1 1 2 3 3 2 3 3 3 2 3 3 3 3 2 1 3 3 5 4
Wind_Direction
150 147 140 138 136 134 126 126 117 110 105 111 115 99 93 91 91 90 89 97 95 92 89 88 85 83 84 85 85 86 87 87 88 80 67 56 73 73 72 67 67 55 54
141 144 143 143 141 133 126 120 113 109 108 118 107 100 95 95 97 95 96 97 96 95 93 89 86 86 84 82 82 84 90 90 92 85 60 56 71 73 69 59 64 56 47
138 144 143 143 137 130 127 124 119 113 106 112 109 102 99 100 98 102 99 98 100 96 89 90 89 88 85 79 76 70 65 70 110 140 71 61 66 76 63 60 64 52 50
137 140 136 136 134 133 130 127 122 117 115 116 112 104 102 102 102 102 105 103 93 91 95 93 91 92 87 80 74 58 27 34 76 88 78 63 63 63 51 56 51 56 51
135 135 137 137 137 132 130 128 124 121 121 122 120 109 108 106 105 105 104 104 91 103 105 100 95 95 87 75 65 51 39 52 82 82 75 68 52 61 63 60 52 51 53
137 131 136 136 138 130 130 128 126 126 126 124 122 113 111 110 108 108 111 111 109 111 108 101 94 95 90 70 50 40 41 50 83 78 77 74 69 74 66 62 60 56 53
128 131 134 136 133 134 126 127 128 131 132 129 131 120 117 115 113 112 115 117 117 114 109 103 95 94 97 78 48 37 33 26 100 96 94 91 84 80 72 66 60 59 58
128 128 138 137 134 130 125 123 125 132 136 138 136 126 124 121 121 119 120 120 120 117 111 105 98 91 92 89 52 29 33 28 68 100 101 106 99 87 76 69 65 64 62
128 126 131 134 133 128 124 121 121 124 126 148 149 139 136 130 127 126 126 125 124 121 117 111 105 101 97 94 62 9 15 12 40 133 124 120 121 99 81 71 66 63 62
132 131 126 131 135 130 131 126 123 116 104 109 148 132 134 135 131 128 126 128 129 127 124 122 117 114 114 117 109 324 337 351 10 137 129 152 122 134 113 88 77 73 70
141 139 139 142 143 136 129 133 127 129 116 102 108 129 136 140 135 138 144 141 137 140 141 140 140 147 161 192 235 257 314 315 335 156 155 151 153 164 168 160 111 95 88
148 149 153 158 157 152 145 143 140 139 142 137 144 159 151 150 148 147 147 155 157 159 167 177 186 205 207 225 265 279 268 284 243 161 175 167 157 180 223 173 145 127 116
157 155 153 164 156 156 150 153 155 157 156 163 175 182 163 149 147 151 154 162 173 184 189 199 217 221 211 212 229 244 253 250 241 180 207 182 179 185 214 233 176 166 154
175 153 154 158 149 158 153 163 167 166 179 175 200 183 154 160 158 167 176 188 185 190 202 210 213 219 234 221 198 222 227 238 260 227 219 199 194 203 216 192 197 195 183
168 167 158 162 149 161 162 162 170 190 185 179 184 178 163 157 169 164 199 188 201 195 195 219 218 223 221 236 231 227 236 232 237 240 209 217 202 211 217 229 221 214 209
161 172 156 170 152 158 170 168 178 188 202 195 181 165 169 159 173 178 181 188 188 190 203 187 200 226 223 218 248 244 244 242 239 230 206 210 212 212 219 230 243 248 229
165 165 168 175 166 163 172 176 179 190 195 196 195 162 168 161 179 179 178 198 195 192 190 189 250 182 217 246 258 270 272 256 245 238 233 219 223 221 216 226 234 243 253
172 175 163 175 163 166 185 180 185 181 204 193 177 164 175 175 172 179 182 188 212 200 187 181 199 243 256 253 261 263 263 266 257 251 244 235 219 222 222 220 223 234 244
190 176 173 166 164 174 179 176 185 169 171 189 146 167 180 173 179 171 193 207 195 182 187 190 209 188 219 249 243 243 264 274 270 274 255 246 239 247 218 210 213 226 241
191 179 183 176 176 183 184 185 180 162 187 220 178 176 182 178 176 179 195 215 203 196 206 200 209 219 214 219 260 273 280 291 293 280 272 264 252 253 236 188 196 217 237
177 175 178 168 186 160 163 162 169 177 183 199 180 198 180 181 179 176 191 213 230 216 208 204 197 239 273 231 239 307 282 254 249 246 257 260 256 221 128 143 147 186 320
184 179 173 182 188 186 176 169 156 163 174 178 193 201 178 168 153 170 184 205 222 203 233 219 214 234 243 215 218 228 287 314 278 300 285 203 155 92 106 95 85 76 71
181 181 182 180 182 179 185 168 120 95 74 155 192 183 180 141 114 132 144 150 141 128 243 302 298 257 261 277 265 203 289 238 325 335 321 131 149 119 118 123 113 104 106
221 177 172 176 182 187 179 185 190 189 174 205 194 141 112 98 105 87 79 72 49 128 303 295 260 234 202 273 331 255 251 222 261 301 330 345 29 139 166 146 126 99 81
171 182 133 190 196 183 171 176 190 199 165 193 179 125 134 119 98 106 95 86 66 37 0 354 340 275 214 220 213 312 298 277 238 238 260 291 17 348 280 140 115 103 94
157 164 154 181 219 214 170 164 168 178 191 146 165 147 152 131 124 127 118 115 114 94 65 42 5 275 242 227 218 232 221 238 279 247 234 223 231 259 53 71 69 89 78